Regional Weather Roundup
Issued by NWS

Home | Current Version | Previous Version | Graphics & Text | Print | Product List | Glossary On
Versions: 1 2 3 4 5 6 7 8 9 10 11 12 13 14 15 16 17 18 19 20 21 22 23 24 25 26 27 28 29 30 31 32 33 34 35 36 37 38 39 40 41 42 43 44 45 46 47 48 49 50
000
ASUS45 KSLC 100610
RWRUT

UTAH REGIONAL WEATHER ROUNDUP
NATIONAL WEATHER SERVICE SALT LAKE CITY UT
1100 PM MST TUE FEB 09 2016

UTZ001>011-023>025-100700-

NORTHERN UTAH

CITY           SKY/WX    TMP DP  RH WIND       PRES   REMARKS
BRIGHAM CITY     N/A     17  14  88 CALM      30.49S VSB 1/4
HILL AFB       CLEAR     28  20  71 E9        30.46S WCI  19
LOGAN          FOG        8   7  95 S3        30.49S VSB 1/4
OGDEN          PTCLDY    26  23  88 CALM      30.47S
PROVO AIRPORT    N/A     16  14  93 CALM      30.48S VSB<1/4
SALT LAKE CITY PTCLDY    28  26  92 N5        30.48S FOG     WCI  23
VERNAL         CLOUDY    13   9  84 W3        30.50F FOG
WENDOVER       CLOUDY    30  27  86 S6        30.49F WCI  24
HEBER CITY     CLEAR     10   9  92 CALM      30.45F
WEST JORDAN    CLEAR     28  27  93 NW5       30.48R WCI  23

$$

UTZ012>022-026-027-100700-

SOUTHERN/CENTRAL UTAH

CITY           SKY/WX    TMP DP  RH WIND       PRES   REMARKS
BLANDING       CLEAR     31  18  60 N9        30.48F WCI  23
BRYCE CANYON   PTCLDY    21  11  65 W13       30.49S WCI   9
CEDAR CITY     PTCLDY    23  20  88 CALM      30.43F
DELTA          CLOUDY    10   8  92 NE3       30.48S VSB<1/4
HANKSVILLE     MOCLDY    27  27 100 CALM      30.49F
MILFORD        FOG        7   3  84 S6        30.46F VSB 3/4 WCI  -3
MOAB/CYNLANDS  PTCLDY    25  21  85 CALM      30.46S
PRICE          CLEAR     24  18  77 NE5       30.44S WCI  18
ST GEORGE      CLEAR     48  25  40 CALM      30.37R
KANAB          CLEAR     41  27  56 NW15      30.42F

$$

REGIONAL REPORTS     COLORADO/ARIZONA

CITY           SKY/WX    TMP DP  RH WIND       PRES   REMARKS
CRAIG, CO      CLOUDY     1  -3  83 W3        30.48S
GRAND JUNCTION CLOUDY    25  21  85 SW3       30.46S
RIFLE          CLOUDY    19  14  81 SE6       30.49S WCI  11
MONTROSE       CLOUDY    25  18  74 S10       30.50S WCI  15
CORTEZ         CLOUDY    23  19  85 NE7       30.42R WCI  15
PAGE, AZ       CLEAR     38  26  62 CALM      30.43R
GRAND CANYON   PTCLDY    28  19  69 CALM      30.43F
KINGMAN        CLEAR     45  25  45 E7        30.29S
FLAGSTAFF      CLEAR     26  13  57 CALM      30.44S

$$

REGIONAL REPORTS    NEVADA/IDAHO/WYOMING

CITY           SKY/WX    TMP DP  RH WIND       PRES   REMARKS
LAS VEGAS, NV  CLEAR     58  28  32 W5        30.25R
ELY            PTCLDY    16   9  74 S12       30.46R WCI   3
ELKO           CLOUDY    15  11  83 NE5       30.45S WCI   8
POCATELLO, ID  CLOUDY    19  17  92 CALM      30.46S
BURLEY         CLEAR     28  25  88 NE13      30.40R WCI  17
EVANSTON, WY   CLOUDY    30  20  66 S6        30.43F WCI  24
ROCK SPRINGS   CLOUDY    31  20  63 W9        30.40S WCI  23

$$



USA.gov is the U.S. government's official web portal to all federal, state and local government web resources and services.